This is the latest recevied weather packets stored in our database for station/object W2JBO-5. If no packets are shown the sender has not sent any weather packets the latest 10 day(s).
| Time | Temp. | Humidity | Pressure | Rain* | Wind** | Luminosity | Snow |
|---|---|---|---|---|---|---|---|
| 1777812294 | 13.89° C | 98% | 1021.8 hPa | 0 mm | - | 156 W/m² | - |
| 1777811992 | 13.33° C | 99% | 1021.8 hPa | 0 mm | - | 134 W/m² | - |
| 1777811690 | 12.78° C | 99% | 1021.9 hPa | 0 mm | - | 105 W/m² | - |
| 1777811386 | 12.78° C | 99% | 1021.7 hPa | 0 mm | - | 86 W/m² | - |
| 1777811083 | 11.67° C | 99% | 1021.8 hPa | 0 mm | - | 77 W/m² | - |
| 1777810780 | 11.11° C | 99% | 1021.6 hPa | 0 mm | - | 69 W/m² | - |
| 1777810477 | 11.67° C | 99% | 1021.8 hPa | 0 mm | - | 59 W/m² | - |
| 1777810173 | 11.11° C | 99% | 1021.6 hPa | 0 mm | - | 49 W/m² | - |
| 1777809870 | 10.56° C | 99% | 1021.5 hPa | 0 mm | - | 42 W/m² | - |
| 1777809568 | 8.89° C | 99% | 1021.5 hPa | 0 mm | - | 36 W/m² | - |
| 1777809265 | 8.89° C | 99% | 1021.5 hPa | 0 mm | - | 18 W/m² | - |
| 1777808963 | 8.89° C | 99% | 1021.4 hPa | 0 mm | - | 13 W/m² | - |
| 1777808660 | 8.33° C | 99% | 1021.4 hPa | 0 mm | - | 10 W/m² | - |
| 1777808357 | 8.33° C | 99% | 1021.2 hPa | 0 mm | - | 9 W/m² | - |
| 1777808056 | 8.33° C | 99% | 1021.2 hPa | 0 mm | - | 6 W/m² | - |
| 1777807752 | 8.33° C | 99% | 1021.4 hPa | 0 mm | - | 4 W/m² | - |
| 1777807451 | 8.33° C | 99% | 1021.2 hPa | 0 mm | - | 2 W/m² | - |
| 1777807145 | 8.89° C | 99% | 1021 hPa | 0 mm | - | 1 W/m² | - |
| 1777806844 | 8.33° C | 99% | 1021.2 hPa | 0 mm | - | 0 W/m² | - |
| 1777806539 | 8.33° C | 99% | 1021.2 hPa | 0 mm | - | 0 W/m² | - |
| 1777806235 | 8.33° C | 99% | 1021 hPa | 0 mm | - | 0 W/m² | - |
| 1777805932 | 8.33° C | 99% | 1021 hPa | 0 mm | - | 0 W/m² | - |
| 1777805629 | 8.89° C | 99% | 1020.8 hPa | 0 mm | - | 0 W/m² | - |
| 1777805327 | 8.89° C | 99% | 1021.1 hPa | 0 mm | - | 0 W/m² | - |
| 1777805024 | 8.89° C | 99% | 1020.9 hPa | 0 mm | - | 0 W/m² | - |
* Rain latest hour (hover to see other rain measurements)
** Current wind speed in m/s (hover to see current wind gust speed)